Rbgn^[z[y[W
メイン
   新天体発見情報
     Comet C/2024 Q3 (PANSTARRS)
投稿するにはまず登録を

スレッド表示 | 古いものから 前のトピック | 次のトピック | 下へ
投稿者 スレッド
佐藤裕久
投稿日時: 2024-9-17 13:56
モデレータ
登録日: 2005-6-12
居住地: 日本
投稿: 2633
オンライン
Comet C/2024 Q3 (PANSTARRS)

R. Weryk (西オンタリオ大学,物理および天文学科)の通報によると、8月27.4日UT、HaleakalaのPan-
STARRS2 1.8-m Ritchey-Chretien反射望遠鏡で得た画像から彗星を発見した。
8月27日のPan-STARRS2の画像では、ソフトに見えるが、明らかなコマや尾はない。
WerykとR. Wainscoatは、8月31.4日UT、1".0のシーイングで、Maunakeaの3.6-m Canada-France-Hawaii
望遠鏡で得た、3枚60秒のgri-バンドフォローアップ画像では、1".2(半値全幅:FWHM)の非常に集光した
頭部が見え、p.a.130°方向にまっすぐな3"の尾がある。 Werykは、9月5.4日、1".4のシーイング
得た4枚45秒のPan-STARRS1w-バンドサヘベイ画像では、1".9(FWHM)の集光した頭部とp.a. 125°に
4"の尾が見えると付け加えた。
小惑星センターのPCCP webpageに公表後、佐藤英貴氏(東京都文京区,8月31.47日UT, 30-秒露出32枚の
スタック,0.51-m f/6.8 アストログラフ, Siding Spring, NSW, オーストラリア, 遠隔操作: 恒星状
に見える。3".2の円形範囲で測定した光度は20.8等であった)が確認観測をした。

彗星機能の報告は次のとおり、

OC   Date        Reporter           Coma    Tail    PA          Exposures
W62  2024-09-03  J. Maikner         5"                           130x40s
F51  2024-09-05  R. Weryk           0".6      4"    125            4x45s

発見位置は次のとおり、

     2024 UT             R.A. (2000) Decl.       Mag.
     Aug. 27.41176   22 27 47.01   - 5 41 56.8   21.0
          27.42368   22 27 44.92   - 5 41 55.5   21.2
          27.43562   22 27 42.85   - 5 41 54.4   21.0
          27.44752   22 27 40.76   - 5 41 53.0   21.4
          27.51686   22 27 28.69   - 5 41 45.8   21.1
          27.51751   22 27 28.57   - 5 41 46.0   20.6
          27.52154   22 27 27.87   - 5 41 45.3   21.2
          27.52219   22 27 27.75   - 5 41 45.4   20.7

MPCの双曲線軌道要素、位置推算表は次のとおり、

Orbital elements:
    C/2024 Q3 (PANSTARRS)                                                       
Epoch 2024 Oct. 17.0 TT = JDT 2460600.5                                         
T 2025 Mar. 5.18775 TT                                  Rudenko                 
q   2.0919490            (2000.0)            P               Q                  
z  -0.0009047      Peri.   70.10887     +0.12475389     -0.93581651             
 +/-0.0002521      Node   337.28425     -0.85428451     +0.06767539             
e   1.0018925      Incl.  121.38131     +0.50461317     +0.34592991             
From 56 observations 2024 July 29-Sept. 7, mean residual 0".3.                  
                                                                                
Ephemeris:
Date    TT    R. A. (2000) Decl.     Delta      r    Elong.  Phase   m1
2024 08 09    23 14 57.1 -06 11 18   2.2489  3.1634   149.3     9.4  21.8
...
2024 08 24    22 37 27.1 -05 47 40   2.0410  3.0450   171.8     2.7  21.4
...
2024 09 01    22 14 22.4 -05 33 36   1.9790  2.9830   172.8     2.4  21.2
...
2024 09 07    21 56 29.5 -05 21 23   1.9569  2.9370   163.4     5.6  21.1
2024 09 08    21 53 30.5 -05 19 11   1.9553  2.9293   161.8     6.2  21.1
2024 09 09    21 50 32.0 -05 16 55   1.9542  2.9217   160.2     6.7  21.1
...
2024 09 15    21 32 57.7 -05 02 15   1.9594  2.8765   150.3    10.0  21.0
...
2024 09 23    21 10 56.2 -04 39 48   1.9952  2.8170   137.4    13.9  21.0
...
2024 10 08    20 36 38.0 -03 50 06   2.1328  2.7088   114.8    19.6  21.0

(MPEC 2024-R181、CBET 5440)


スレッド表示 | 古いものから 前のトピック | 次のトピック | トップ

投稿するにはまず登録を
 
© 1999 Tsutomu Seki.